Back to catalog

QIANFAN-42

AliveCommunicationsPO
NORAD 62243·PAYLOAD·🇨🇳 China

Launched Dec 5, 2024 from Taiyuan Satellite Launch Center

Loading…

Next Passes (next 24 hours)

TLE

FreshSource: Space-Track

Epoch: Sep 14, 2026, 12:57 UTC

1 62243U 24232G   26257.53993595  .00000349  00000-0  14380-3 0  9995
2 62243  89.0138   6.0052 0012746 259.3300 100.6457 14.24645556140632

Track QIANFAN-42 in real time with AllMySat

Download on the App Store